Simultaneous Nadir Overpasses (SNOs) Predictions

Prediction of SNOs between FY3D and TERRA Satellite Orbit:

Table of predicted SNOs for the next 14.0 days since TLE Epoch: 6/12/2021
Index Date (FY3D) Time (FY3D) Lat,Lon (FY3D) SZA (FY3D ) Date (TERRA) Time (TERRA) Lat,Lon (TERRA) SZA (TERRA ) Distance(km) Time Diff (sec)
1 06/12/2021 05:21:36 69.80, 99.31 46.52 06/12/2021 05:22:14 69.80, 99.28 46.53 1.54 38
2 06/12/2021 06:12:17 -69.70, -93.23 133.57 06/12/2021 06:11:44 -69.69, -93.24 133.59 1.85 33
3 06/14/2021 21:37:56 69.85,-144.83 46.44 06/14/2021 21:38:40 69.85,-144.78 46.44 2.14 44
4 06/14/2021 22:28:37 -69.76, 22.63 133.66 06/14/2021 22:28:10 -69.74, 22.70 133.68 3.21 27
5 06/17/2021 13:54:14 69.86, -28.90 46.36 06/17/2021 13:55:06 69.84, -28.91 46.34 2.23 52
6 06/17/2021 14:44:55 -69.76, 138.57 133.75 06/17/2021 14:44:36 -69.73, 138.57 133.77 2.54 19
7 06/17/2021 15:35:24 68.85, -52.83 45.35 06/17/2021 15:34:16 68.90, -54.88 45.40 82.47 68
8 06/20/2021 06:10:33 69.87, 87.03 46.33 06/20/2021 06:11:32 69.88, 87.02 46.34 1.38 59
9 06/20/2021 07:01:14 -69.76,-105.49 133.79 06/20/2021 07:01:02 -69.78,-105.49 133.77 2.00 12
10 06/20/2021 07:51:48 69.13, 62.74 45.58 06/20/2021 07:50:38 69.16, 61.33 45.62 55.61 70
11 06/22/2021 22:26:53 69.93,-157.12 46.40 06/22/2021 22:27:58 69.91,-157.06 46.38 3.18 65
12 06/22/2021 23:17:34 -69.81, 10.37 133.72 06/22/2021 23:17:28 -69.81, 10.44 133.72 2.63 6
13 06/23/2021 00:08:11 69.35, 178.36 45.81 06/23/2021 00:07:00 69.42, 177.55 45.89 32.71 71
14 06/25/2021 14:43:13 69.99, -41.28 46.52 06/25/2021 14:44:24 69.94, -41.13 46.47 7.82 71
15 06/25/2021 15:33:53 -69.82, 126.30 133.66 06/25/2021 15:33:55 -69.79, 126.29 133.69 3.15 2
16 06/25/2021 16:24:35 69.63, -66.10 46.15 06/25/2021 16:23:22 69.67, -66.23 46.20 7.09 73



Historial Predications of SNOs between FY3D and TERRA
